Showing default

COSMOS 1695, 16143

Orbit data source: Space-Track

COSMOS 1695, 16143 is a payload satellite owned by GUKOS (CIS) in LEO that was launched on Wed, 09 Oct 1985 UTC via a TSIKLON-3 launch vehicle from the Plesetsk Missile And Space Complex (PKMTR). Payload-class satellites include a variety of spacecraft equipped with specific instruments for various scientific and technological missions. These include communications satellites like Starlink; space stations such as the ISS; scientific satellites like the Hubble; Earth observation satellites from companies like Planet Labs, Umbra, and HawkEye 360; GPS; miniature CubeSats for education and research; and military/defense satellites.

Loading next visibility...
Identifier
16143, 1985-094F
Orbit
LEO
Country
Flag of CISCIS
Related business
Manufacturer
NPO PM
Mission
Spacecraft
Bus & Motor
STRELA-3, Unknown motor
Mass
225 kg wet, 225 kg dry
Launch date (UTC)
1985-10-09 (40 years ago)
Launch vehicle
TSIKLON-3
Launch site
Plesetsk Missile And Space Complex (PKMTR)
Object type
Payload
Rocket body
Debris
Shape & HBR
Unknown
Radar Cross Section
Medium (>0.1 m² and <1 m²)

Expand to show TLE details & history
Last TLE update: 1 day ago

TLE from 1 day ago
0 COSMOS 1695
1 16143U 85094F   26036.34639811  .00000012  00000-0  79579-5 0  9998
2 16143  82.6071 352.2649 0008146  64.2833  90.7314 12.62895107858856
Epoch: 2026-02-05T08:18Z
TLE epoch observation values (Epoch: 2026-02-05T08:18:48.796Z)
Latitude
24.69605°
Longitude
-91.34221°
Altitude
1,413.946 km
Speed
7.156 km/s
True Right ascension
11h 15m 26s
True Declination
24° 34' 36"
Sunlit
Object was in full shadow at epoch
Visualization orbit readout
Latitude
Unknown
Longitude
Unknown
Altitude
Unknown
Speed
Unknown
Apparent Right ascension
Unknown
Apparent Declination
Unknown
Sunlit
N/A
Visualization observer readout
Local Sidereal Time
15:24:26
Azimuth
Unknown
Elevation
Unknown
Doppler factor
Unknown
Orbital elements
Apogee altitude
1,414.679 km
Perigee altitude
1,401.993 km
Semi-major axis
7,786.473 km
Eccentricity
0.00081
Inclination
82.6071°
RAAN
352.2649°
Arg. of periapsis
64.2833°
True anomaly
90.82474°
Mean anomaly
90.7314°
Eccentric anomaly
90.77807°
Mean motion
3.15887 °/min
Orbital period
113.96 mins
BSTAR
0.0000079579
Loading maneuver chart data...
Computing Atmospheric mass density...
Loading historical data...
Loading historical data...
Loading historical data...
Loading historical data...
Loading historical data...
Loading historical data...
Loading historical data...

Documentation

Showing up to 5 results
|